Regional Weather Roundup
Issued by NWS Lake Charles, LA

Home | Current Version | Previous Version | Text Only | Print | Product List | Glossary On
Versions: 1 2 3 4 5 6 7 8 9 10 11 12 13 14 15 16 17 18 19 20 21 22 23 24 25 26 27 28 29 30 31 32 33 34 35 36 37 38 39 40 41 42 43 44 45 46 47 48 49 50
000
ASUS44 KLCH 271210
RWRLCH
RWRLCH
REGIONAL WEATHER ROUNDUP
NATIONAL WEATHER SERVICE LAKE CHARLES LA
600 AM CST SAT DEC 27 2014

Note: "fair" indicates few or no clouds below 12,000 feet with no
significant weather and/or obstructions to visibility.


ACROSS SOUTHEAST TEXAS

CITY           SKY/WX    TMP DP  RH WIND       PRES   REMARKS
BEAUMONT       FOG       66  65  96 E8        30.01S VSB 1/2
BEAUMONT CITY  FOG       65  65 100 CALM      30.02S VSB 1/4
ORANGE         FOG       65  65  99 E5        30.04R VSB 3/4
JASPER         FOG       62  61  97 SE3       30.05R VSB 1
$$

ACROSS CENTRAL LOUISIANA

CITY           SKY/WX    TMP DP  RH WIND       PRES   REMARKS
LEESVILLE      FOG       61  61 100 SE6       30.04R VSB 3/4
FULLERTON      CLOUDY    63  60  90 CALM      30.03R FOG
ALEXANDRIA INT CLOUDY    59  58  96 SE7       30.06R
ESLER FIELD    CLOUDY    62  58  86 SE3       30.08R
DERIDDER       LGT RAIN  62  60  96 CALM      30.06R
OAKDALE        CLOUDY    61  60  95 CALM      30.07R FOG
OPELOUSAS      CLOUDY    60  59  96 E8        30.07S
$$

ACROSS SOUTHWEST AND SOUTH CENTRAL LOUISIANA

CITY           SKY/WX    TMP DP  RH WIND       PRES   REMARKS
SULPHUR        CLOUDY    64  64  99 E5        30.05R FOG
LAKE CHARLES   CLOUDY    63  62  97 SE8       30.04R FOG
CHENNAULT INT  CLOUDY    63  63 100 E5        30.05  FOG
CAMERON PHI      N/A     63  61  94 SE9       30.07R
DEQUINCY       CLOUDY    63  63 100 E3        30.04S FOG
JENNINGS       CLOUDY    62  62  97 SE9       30.06R
LAFAYETTE      CLOUDY    62  60  93 CALM      30.08R
NEW IBERIA     CLOUDY    63  61  93 SE6       30.07S FOG
ABBEVILLE      CLOUDY    62  62  99 E7        30.08R FOG
PATTERSON      CLOUDY    63  61  94 E7        30.09S
SALT POINT       N/A     75  63  66 E3        30.06R
$$

SELECTED SITES ACROSS THE REGION

CITY           SKY/WX    TMP DP  RH WIND       PRES   REMARKS
HOUSTON BUSH   CLOUDY    70  68  93 SE8       29.98S
HOUSTON HOBBY  CLOUDY    69  68  96 S6        29.98R
GALVESTON      CLOUDY    66  66 100 SE10      29.99S
COLLEGE STAT   CLOUDY    66  65  96 SE3       29.98R
CONROE         CLOUDY    67  66  97 S7        29.99S FOG
HUNTSVILLE     CLOUDY    68  66  93 S7        29.98R
LUFKIN         FOG       65  62  90 SE6       30.00S VSB 3/4
SHREVEPORT     FOG       59  58  96 SE7       30.03R VSB 1/2
MONROE         CLOUDY    59  57  93 SE3       30.08S
NATCHEZ MS     CLOUDY    59  55  88 SE8       30.10S
BATON ROUGE    CLOUDY    60  59  96 E9        30.09S
N.O. INTL ARPT LGT RAIN  65  62  90 NE6       30.13R FOG
SLIDELL        LGT RAIN  64  62  93 N5        30.14R FOG
$$

MARINE REPORTS

STATION/POSITION TIME  TEMP    WIND        PRES    VSBY  WAVE
                       AIR SEA DIR/SP/G                  HT/PER
                 (UTC) (F)     (DEG/KT/KT) (MB)    (MI)  (FT/S)
BUOY 30 S HIGH I 1200   65 61  140/ 12/ 12 1015.2R         4/ 6
SEA RIM ST PARK  1200   62     110/ 10/ 11 1016.4F
PORT ARTHUR      1200      58  110/  3/  5 1016.5S
SABINE PASS N    1200   62 60  140/  7/  9 1016.3S
TEXAS POINT      NOT AVBL
CALCASIEU PASS   1200   62 59  130/ 10/ 12   N/A
LK CHARLES BEACH 1200   63 57              1017.4R
MARSH ISLAND     NOT AVBL
FRESH WATER LOCK 1200   63 58   70/  7/  9 1017.7S
AMERADA PASS     1200   66 52   90/  6/ 11 1018.1S
$$



USA.gov is the U.S. government's official web portal to all federal, state and local government web resources and services.